This is the latest recevied weather packets stored in our database for station/object KD4MBW. If no packets are shown the sender has not sent any weather packets the latest 10 day(s).
| Time | Temp. | Humidity | Pressure | Rain* | Wind** | Luminosity | Snow |
|---|---|---|---|---|---|---|---|
| 1787948968 | 26.67° C | 94% | 1015.8 hPa | 0 mm | - | 65 W/m² | - |
| 1787948664 | 26.67° C | 94% | 1015.9 hPa | 0 mm | - | 62 W/m² | - |
| 1787948359 | 26.67° C | 94% | 1015.9 hPa | 0 mm | - | 60 W/m² | - |
| 1787948058 | 26.67° C | 94% | 1015.9 hPa | 0 mm | - | 60 W/m² | - |
| 1787947757 | 27.22° C | 93% | 1015.9 hPa | 0 mm | - | 63 W/m² | - |
| 1787947452 | 27.22° C | 91% | 1016.1 hPa | 0 mm | - | 70 W/m² | - |
| 1787947152 | 27.22° C | 91% | 1016.1 hPa | 0 mm | - | 79 W/m² | - |
| 1787946851 | 27.78° C | 90% | 1016 hPa | 0 mm | - | 90 W/m² | - |
| 1787946549 | 27.78° C | 89% | 1016.3 hPa | 0 mm | - | 100 W/m² | - |
| 1787946245 | 27.78° C | 89% | 1016.2 hPa | 0 mm | - | 113 W/m² | - |
| 1787945944 | 28.33° C | 88% | 1016.1 hPa | 0 mm | - | 129 W/m² | - |
| 1787945639 | 28.89° C | 88% | 1016.1 hPa | 0 mm | - | 149 W/m² | - |
| 1787945334 | 28.89° C | 86% | 1016.1 hPa | 0 mm | - | 175 W/m² | - |
| 1787945029 | 28.89° C | 85% | 1016.3 hPa | 0 mm | - | 204 W/m² | - |
| 1787944727 | 28.89° C | 85% | 1016.4 hPa | 0 mm | - | 231 W/m² | - |
| 1787944422 | 29.44° C | 85% | 1016.5 hPa | 0 mm | - | 260 W/m² | - |
| 1787944117 | 29.44° C | 84% | 1016.5 hPa | 0 mm | - | 298 W/m² | - |
| 1787943812 | 29.44° C | 83% | 1016.4 hPa | 0 mm | - | 290 W/m² | - |
| 1787943508 | 29.44° C | 81% | 1016.3 hPa | 0 mm | - | 298 W/m² | - |
| 1787943203 | 29.44° C | 81% | 1016.5 hPa | 0 mm | - | 315 W/m² | - |
| 1787942902 | 29.44° C | 80% | 1016.5 hPa | 0 mm | - | 250 W/m² | - |
| 1787942598 | 29.44° C | 82% | 1016.6 hPa | 0 mm | - | 274 W/m² | - |
| 1787942297 | 29.44° C | 82% | 1016.6 hPa | 0 mm | - | 263 W/m² | - |
| 1787941992 | 30° C | 80% | 1016.5 hPa | 0 mm | - | 680 W/m² | - |
| 1787941687 | 30° C | 79% | 1016.6 hPa | 0 mm | - | 298 W/m² | - |
* Rain latest hour (hover to see other rain measurements)
** Current wind speed in m/s (hover to see current wind gust speed)